| time (UTC) | temp F | wind direction | speed MPH | gust MPH | rain 1hr in | rain 24hr in | rain mn in | humidity % | barometer mb |
| 20260509001538 | 65 | 110 | 0.0 | 1.0 | 0.00 | 0.00 | 0.00 | 51 | 1013.8 |
| 20260509000044 | 68 | 117 | 0.0 | 1.0 | 0.00 | 0.00 | 0.00 | 46 | 1013.8 |
| 20260508234536 | 71 | 123 | 0.0 | 2.0 | 0.00 | 0.00 | 0.00 | 44 | 1014.0 |
| 20260508233037 | 72 | 162 | 0.0 | 2.0 | 0.00 | 0.00 | 0.00 | 42 | 1013.9 |
| 20260508231536 | 72 | 243 | 0.0 | 3.0 | 0.00 | 0.00 | 0.00 | 41 | 1013.8 |
| 20260508230035 | 72 | 106 | 0.0 | 2.0 | 0.00 | 0.00 | 0.00 | 42 | 1013.7 |
| 20260508224533 | 71 | 70 | 0.0 | 4.0 | 0.00 | 0.00 | 0.00 | 46 | 1014.0 |
| 20260508223036 | 70 | 5 | 1.0 | 7.0 | 0.00 | 0.00 | 0.00 | 48 | 1014.1 |
| 20260508221536 | 71 | 338 | 5.0 | 8.0 | 0.00 | 0.00 | 0.00 | 47 | 1013.9 |
| 20260508220037 | 71 | 215 | 1.0 | 11.0 | 0.00 | 0.00 | 0.00 | 51 | 1014.1 |
| 20260508214531 | 70 | 290 | 3.0 | 8.0 | 0.00 | 0.00 | 0.00 | 45 | 1014.1 |
| 20260508213043 | 72 | 309 | 1.0 | 6.0 | 0.00 | 0.00 | 0.00 | 47 | 1014.4 |
| 20260508211533 | 72 | 294 | 2.0 | 6.0 | 0.00 | 0.00 | 0.00 | 46 | 1014.2 |
| 20260508210025 | 70 | 127 | 1.0 | 5.0 | 0.00 | 0.00 | 0.00 | 45 | 1014.1 |
| 20260508204523 | 69 | 323 | 2.0 | 6.0 | 0.00 | 0.00 | 0.00 | 45 | 1014.4 |
| 20260508203022 | 69 | 323 | 5.0 | 8.0 | 0.00 | 0.00 | 0.00 | 47 | 1014.4 |
| 20260508201521 | 69 | 250 | 0.0 | 9.0 | 0.00 | 0.00 | 0.00 | 47 | 1014.6 |
| 20260508200020 | 69 | 295 | 2.0 | 8.0 | 0.00 | 0.00 | 0.00 | 48 | 1014.8 |
| 20260508194517 | 69 | 274 | 2.0 | 6.0 | 0.00 | 0.00 | 0.00 | 53 | 1015.3 |
| 20260508193014 | 69 | 309 | 6.0 | 11.0 | 0.00 | 0.00 | 0.00 | 51 | 1016.0 |
| 20260508191517 | 69 | 274 | 2.0 | 5.0 | 0.00 | 0.00 | 0.00 | 48 | 1016.2 |
| 20260508190008 | 70 | 324 | 1.0 | 6.0 | 0.00 | 0.00 | 0.00 | 43 | 1016.3 |
| 20260508184513 | 69 | 319 | 0.0 | 7.0 | 0.00 | 0.00 | 0.00 | 52 | 1016.5 |
| 20260508183006 | 69 | 302 | 1.0 | 6.0 | 0.00 | 0.00 | 0.00 | 46 | 1016.7 |
| 20260508181515 | 69 | 39 | 0.0 | 5.0 | 0.00 | 0.00 | 0.00 | 49 | 1016.9 |
| 20260508180005 | 69 | 101 | 0.0 | 4.0 | 0.00 | 0.00 | 0.00 | 44 | 1016.9 |
| 20260508174609 | 68 | 238 | 0.0 | 4.0 | 0.00 | 0.00 | 0.00 | 44 | 1017.1 |
| 20260508173058 | 66 | 41 | 4.0 | 7.0 | 0.00 | 0.00 | 0.00 | 47 | 1017.3 |
| 20260508171558 | 65 | 282 | 2.0 | 6.0 | 0.00 | 0.00 | 0.00 | 52 | 1017.6 |
| 20260508170058 | 67 | 70 | 0.0 | 4.0 | 0.00 | 0.00 | 0.00 | 48 | 1017.9 |
| 20260508164557 | 66 | 129 | 0.0 | 4.0 | 0.00 | 0.00 | 0.00 | 46 | 1018.3 |
| 20260508163055 | 66 | 265 | 0.0 | 5.0 | 0.00 | 0.00 | 0.00 | 48 | 1018.7 |
| 20260508161552 | 66 | 148 | 0.0 | 4.0 | 0.00 | 0.00 | 0.00 | 52 | 1018.7 |
| 20260508160048 | 64 | 306 | 0.0 | 3.0 | 0.00 | 0.00 | 0.00 | 56 | 1019.0 |
| 20260508154554 | 63 | 306 | 2.0 | 8.0 | 0.00 | 0.00 | 0.00 | 60 | 1019.2 |
| 20260508153048 | 63 | 257 | 2.0 | 5.0 | 0.00 | 0.00 | 0.00 | 58 | 1019.3 |
| 20260508151547 | 64 | 308 | 1.0 | 3.0 | 0.00 | 0.00 | 0.00 | 55 | 1019.5 |
| 20260508150044 | 63 | 257 | 0.0 | 5.0 | 0.00 | 0.00 | 0.00 | 55 | 1019.5 |
| 20260508144541 | 63 | 112 | 0.0 | 5.0 | 0.00 | 0.00 | 0.00 | 56 | 1019.5 |
| 20260508143039 | 62 | 146 | 0.0 | 6.0 | 0.00 | 0.00 | 0.00 | 61 | 1019.4 |
| 20260508141547 | 62 | 218 | 0.0 | 2.0 | 0.00 | 0.00 | 0.00 | 71 | 1019.6 |
| 20260508140034 | 61 | 131 | 0.0 | 2.0 | 0.00 | 0.01 | 0.00 | 71 | 1019.8 |
| 20260508134534 | 60 | 104 | 0.0 | 3.0 | 0.00 | 0.01 | 0.00 | 75 | 1019.7 |
| 20260508133029 | 60 | 148 | 0.0 | 2.0 | 0.00 | 0.01 | 0.00 | 80 | 1019.6 |
| 20260508131526 | 57 | 28 | 0.0 | 3.0 | 0.00 | 0.01 | 0.00 | 84 | 1019.5 |
| 20260508130021 | 55 | 139 | 0.0 | 2.0 | 0.00 | 0.01 | 0.00 | 88 | 1019.4 |
| 20260508124520 | 53 | 107 | 1.0 | 4.0 | 0.00 | 0.01 | 0.00 | 89 | 1019.4 |
| 20260508123015 | 52 | 168 | 0.0 | 3.0 | 0.00 | 0.01 | 0.00 | 94 | 1019.5 |
| 20260508121512 | 50 | 127 | 0.0 | 1.0 | 0.00 | 0.01 | 0.00 | 97 | 1019.3 |
| 20260508120010 | 47 | 10 | 0.0 | 0.0 | 0.00 | 0.02 | 0.00 | 97 | 1019.3 |
| 20260508114508 | 44 | 10 | 0.0 | 0.0 | 0.00 | 0.02 | 0.00 | 95 | 1019.0 |
| 20260508113007 | 44 | 10 | 0.0 | 0.0 | 0.00 | 0.02 | 0.00 | 95 | 1018.6 |
| 20260508111511 | 44 | 10 | 0.0 | 0.0 | 0.00 | 0.02 | 0.00 | 95 | 1018.5 |
| 20260508110002 | 44 | 10 | 0.0 | 0.0 | 0.00 | 0.02 | 0.00 | 94 | 1018.2 |
| 20260508104601 | 45 | 10 | 0.0 | 0.0 | 0.00 | 0.02 | 0.00 | 94 | 1018.1 |
| 20260508103135 | 45 | 10 | 0.0 | 0.0 | 0.00 | 0.02 | 0.00 | 94 | 1017.8 |
| 20260508101619 | 45 | 10 | 0.0 | 0.0 | 0.00 | 0.02 | 0.00 | 93 | 1017.8 |
| 20260508100057 | 45 | 10 | 0.0 | 0.0 | 0.00 | 0.03 | 0.00 | 92 | 1017.8 |
| 20260508094610 | 44 | 10 | 0.0 | 0.0 | 0.00 | 0.03 | 0.00 | 92 | 1017.8 |
| 20260508093056 | 43 | 10 | 0.0 | 0.0 | 0.00 | 0.03 | 0.00 | 91 | 1017.7 |
| 20260508091553 | 43 | 337 | 0.0 | 0.0 | 0.00 | 0.03 | 0.00 | 88 | 1017.5 |
| 20260508084549 | 44 | 337 | 0.0 | 0.0 | 0.00 | 0.05 | 0.00 | 88 | 1017.5 |
| 20260508083104 | 45 | 337 | 0.0 | 0.0 | 0.00 | 0.05 | 0.00 | 86 | 1017.4 |
| 20260508081545 | 45 | 337 | 0.0 | 0.0 | 0.00 | 0.05 | 0.00 | 87 | 1017.2 |
| 20260508080053 | 45 | 337 | 0.0 | 0.0 | 0.00 | 0.06 | 0.00 | 88 | 1017.4 |
| 20260508074544 | 45 | 337 | 0.0 | 0.0 | 0.00 | 0.06 | 0.00 | 88 | 1017.5 |
| 20260508073040 | 46 | 337 | 0.0 | 0.0 | 0.00 | 0.06 | 0.00 | 88 | 1017.6 |
| 20260508071538 | 47 | 337 | 0.0 | 0.0 | 0.00 | 0.06 | 0.00 | 86 | 1017.6 |
| 20260508070034 | 48 | 337 | 0.0 | 0.0 | 0.00 | 0.06 | 0.00 | 85 | 1017.6 |
| 20260508064544 | 48 | 337 | 0.0 | 0.0 | 0.00 | 0.06 | 0.00 | 85 | 1017.6 |
| 20260508063031 | 49 | 337 | 0.0 | 0.0 | 0.00 | 0.06 | 0.00 | 85 | 1017.5 |
| 20260508061534 | 49 | 337 | 0.0 | 0.0 | 0.00 | 0.06 | 0.00 | 85 | 1017.5 |
| 20260508060030 | 49 | 337 | 0.0 | 0.0 | 0.00 | 0.12 | 0.00 | 85 | 1017.5 |
| 20260508054533 | 50 | 337 | 0.0 | 0.0 | 0.00 | 0.12 | 0.00 | 84 | 1017.6 |
| 20260508053031 | 50 | 337 | 0.0 | 0.0 | 0.00 | 0.12 | 0.00 | 85 | 1017.8 |
| 20260508051528 | 49 | 337 | 0.0 | 0.0 | 0.00 | 0.12 | 0.00 | 85 | 1017.8 |
| 20260508050029 | 50 | 337 | 0.0 | 1.0 | 0.00 | 0.12 | 0.00 | 84 | 1017.5 |
| 20260508044525 | 50 | 337 | 0.0 | 1.0 | 0.00 | 0.12 | 0.00 | 85 | 1017.3 |
| 20260508043022 | 49 | 337 | 0.0 | 0.0 | 0.00 | 0.12 | 0.00 | 85 | 1017.1 |
| 20260508041520 | 50 | 337 | 0.0 | 0.0 | 0.00 | 0.12 | 0.00 | 84 | 1016.9 |
| 20260508040022 | 50 | 337 | 0.0 | 0.0 | 0.00 | 0.12 | 0.12 | 84 | 1016.9 |
| 20260508034516 | 51 | 337 | 0.0 | 0.0 | 0.00 | 0.12 | 0.12 | 82 | 1016.7 |
| 20260508033013 | 51 | 337 | 0.0 | 0.0 | 0.00 | 0.12 | 0.12 | 81 | 1016.8 |
| 20260508031510 | 52 | 337 | 0.0 | 1.0 | 0.00 | 0.12 | 0.12 | 80 | 1016.7 |
| 20260508030013 | 53 | 337 | 0.0 | 0.0 | 0.00 | 0.15 | 0.12 | 80 | 1016.6 |
| 20260508024509 | 53 | 337 | 0.0 | 1.0 | 0.00 | 0.15 | 0.12 | 82 | 1016.6 |
| 20260508023019 | 53 | 337 | 0.0 | 0.0 | 0.00 | 0.15 | 0.12 | 83 | 1016.6 |
| 20260508021504 | 54 | 337 | 0.0 | 0.0 | 0.00 | 0.15 | 0.12 | 84 | 1016.5 |
| 20260508020002 | 54 | 337 | 0.0 | 0.0 | 0.00 | 0.15 | 0.12 | 86 | 1016.1 |
| 20260508014502 | 54 | 337 | 0.0 | 0.0 | 0.00 | 0.15 | 0.12 | 88 | 1015.9 |
| 20260508013101 | 54 | 337 | 0.0 | 0.0 | 0.00 | 0.15 | 0.12 | 87 | 1015.7 |
| 20260508011559 | 55 | 337 | 0.0 | 0.0 | 0.00 | 0.15 | 0.12 | 85 | 1015.2 |
| 20260508010056 | 56 | 337 | 0.0 | 0.0 | 0.00 | 0.27 | 0.12 | 83 | 1015.3 |
| 20260508004601 | 56 | 337 | 0.0 | 0.0 | 0.00 | 0.27 | 0.12 | 79 | 1015.0 |
| 20260508003106 | 59 | 337 | 0.0 | 0.0 | 0.00 | 0.27 | 0.12 | 76 | 1014.9 |